EN

Hourly Weather Trinec

Today, 23 April, Friday

Time Temperature Precipitation Wind Pressure Humidity
00:00 +3°C° 0 mm 1 mps 733 mmHg 86%
01:00 +2°C° 0 mm 1 mps 733 mmHg 87%
02:00 +2°C° 0 mm 1 mps 733 mmHg 88%
03:00 +2°C° 0 mm 1 mps 733 mmHg 89%
04:00 +2°C° 0 mm 1 mps 734 mmHg 90%
05:00 +3°C° 0.1 mm 1 mps 734 mmHg 89%
06:00 +4°C° 0.1 mm 1 mps 734 mmHg 88%
07:00 +3°C° 0.1 mm 2 mps 734 mmHg 86%
08:00 +4°C° 0.2 mm 2 mps 735 mmHg 81%
09:00 +5°C° 0.2 mm 2 mps 735 mmHg 77%
10:00 +5°C° 0.2 mm 3 mps 735 mmHg 72%
11:00 +5°C° 0.2 mm 3 mps 735 mmHg 70%
12:00 +7°C° 0.2 mm 3 mps 735 mmHg 68%
13:00 +7°C° 0.2 mm 3 mps 735 mmHg 66%
14:00 +8°C° 0.2 mm 3 mps 735 mmHg 65%
15:00 +8°C° 0.2 mm 3 mps 735 mmHg 64%
16:00 +8°C° 0.2 mm 3 mps 735 mmHg 63%
17:00 +7°C° 0.1 mm 3 mps 735 mmHg 69%
18:00 +5°C° 0.1 mm 2 mps 735 mmHg 76%
19:00 +4°C° 0.1 mm 2 mps 735 mmHg 83%
20:00 +3°C° 0 mm 2 mps 736 mmHg 84%
21:00 +3°C° 0 mm 2 mps 736 mmHg 86%
22:00 +2°C° 0 mm 2 mps 736 mmHg 88%
23:00 +2°C° 0 mm 2 mps 736 mmHg 88%

Tomorrow, 24 April, Saturday

Time Temperature Precipitation Wind Pressure Humidity
00:00 +2°C° 0 mm 2 mps 735 mmHg 87%
01:00 +1°C° 0 mm 2 mps 735 mmHg 87%
02:00 +2°C° 0 mm 2 mps 735 mmHg 87%
03:00 +3°C° 0 mm 1 mps 735 mmHg 87%
04:00 +3°C° 0 mm 1 mps 735 mmHg 87%
05:00 +4°C° 0 mm 1 mps 736 mmHg 84%
06:00 +5°C° 0 mm 1 mps 736 mmHg 80%
07:00 +6°C° 0 mm 1 mps 736 mmHg 77%
08:00 +7°C° 0 mm 1 mps 736 mmHg 70%
09:00 +7°C° 0 mm 2 mps 736 mmHg 64%
10:00 +8°C° 0 mm 2 mps 736 mmHg 57%
11:00 +9°C° 0 mm 2 mps 735 mmHg 55%
12:00 +9°C° 0 mm 2 mps 735 mmHg 53%
13:00 +10°C° 0 mm 2 mps 735 mmHg 51%
14:00 +10°C° 0 mm 2 mps 734 mmHg 52%
15:00 +10°C° 0 mm 2 mps 734 mmHg 52%
16:00 +12°C° 0 mm 2 mps 734 mmHg 53%
17:00 +9°C° 0 mm 2 mps 734 mmHg 61%
18:00 +8°C° 0 mm 2 mps 734 mmHg 70%
19:00 +6°C° 0 mm 2 mps 734 mmHg 79%
20:00 +7°C° 0 mm 1 mps 734 mmHg 82%
21:00 +7°C° 0 mm 1 mps 734 mmHg 84%
22:00 +6°C° 0 mm 1 mps 734 mmHg 87%
23:00 +6°C° 0 mm 1 mps 734 mmHg 87%

Day after tomorrow, 25 April, Sunday

Time Temperature Precipitation Wind Pressure Humidity
00:00 +6°C° 0 mm 1 mps 734 mmHg 87%
01:00 +5°C° 0 mm 1 mps 734 mmHg 87%
02:00 +5°C° 0 mm 1 mps 734 mmHg 88%
03:00 +4°C° 0 mm 1 mps 734 mmHg 89%
04:00 +4°C° 0 mm 1 mps 734 mmHg 90%
05:00 +4°C° 0 mm 1 mps 734 mmHg 86%
06:00 +5°C° 0 mm 1 mps 734 mmHg 81%
07:00 +5°C° 0 mm 1 mps 735 mmHg 77%
08:00 +5°C° 0 mm 2 mps 735 mmHg 68%
09:00 +6°C° 0 mm 2 mps 734 mmHg 60%
10:00 +7°C° 0 mm 3 mps 734 mmHg 51%
11:00 +8°C° 0 mm 3 mps 734 mmHg 47%
12:00 +9°C° 0 mm 3 mps 734 mmHg 44%
13:00 +9°C° 0 mm 3 mps 734 mmHg 40%
14:00 +9°C° 0 mm 3 mps 734 mmHg 41%
15:00 +9°C° 0 mm 3 mps 734 mmHg 42%
16:00 +8°C° 0 mm 3 mps 734 mmHg 43%
17:00 +7°C° 0 mm 2 mps 734 mmHg 48%
18:00 +5°C° 0 mm 2 mps 733 mmHg 53%
19:00 +5°C° 0 mm 1 mps 733 mmHg 58%
20:00 +4°C° 0 mm 1 mps 733 mmHg 60%
21:00 +4°C° 0 mm 1 mps 733 mmHg 61%
22:00 +2°C° 0 mm 0 mps 733 mmHg 63%
23:00 +3°C° 0 mm 1 mps 733 mmHg 63%

26 April, Monday

Time Temperature Precipitation Wind Pressure Humidity
00:00 +3°C° 0 mm 1 mps 733 mmHg 63%
01:00 +2°C° 0 mm 1 mps 733 mmHg 63%
02:00 +2°C° 0 mm 1 mps 732 mmHg 63%
03:00 +2°C° 0 mm 1 mps 732 mmHg 63%
04:00 +2°C° 0 mm 1 mps 732 mmHg 63%
05:00 +4°C° 0 mm 1 mps 732 mmHg 59%
06:00 +5°C° 0 mm 1 mps 731 mmHg 55%
07:00 +5°C° 0 mm 0 mps 731 mmHg 50%
08:00 +8°C° 0 mm 1 mps 731 mmHg 46%
09:00 +9°C° 0 mm 1 mps 731 mmHg 42%
10:00 +10°C° 0 mm 1 mps 730 mmHg 38%
11:00 +10°C° 0 mm 2 mps 730 mmHg 38%
12:00 +11°C° 0 mm 3 mps 729 mmHg 38%
13:00 +12°C° 0 mm 3 mps 729 mmHg 38%
14:00 +12°C° 0 mm 3 mps 729 mmHg 39%
15:00 +12°C° 0 mm 3 mps 728 mmHg 39%
16:00 +12°C° 0 mm 3 mps 728 mmHg 40%
17:00 +10°C° 0 mm 2 mps 728 mmHg 49%
18:00 +8°C° 0 mm 2 mps 728 mmHg 58%
19:00 +7°C° 0 mm 1 mps 728 mmHg 67%
20:00 +6°C° 0 mm 1 mps 728 mmHg 70%
21:00 +5°C° 0 mm 1 mps 729 mmHg 74%
22:00 +4°C° 0 mm 1 mps 729 mmHg 77%
23:00 +4°C° 0 mm 1 mps 728 mmHg 79%

27 April, Tuesday

Time Temperature Precipitation Wind Pressure Humidity
00:00 +3°C° 0 mm 1 mps 728 mmHg 80%
01:00 +2°C° 0 mm 2 mps 728 mmHg 82%
02:00 +2°C° 0 mm 2 mps 727 mmHg 83%
03:00 +1°C° 0 mm 2 mps 727 mmHg 83%
04:00 +1°C° 0 mm 2 mps 726 mmHg 84%
05:00 +3°C° 0 mm 2 mps 726 mmHg 78%
06:00 +4°C° 0 mm 2 mps 726 mmHg 71%
07:00 +6°C° 0 mm 2 mps 726 mmHg 65%
08:00 +7°C° 0 mm 2 mps 725 mmHg 59%
09:00 +9°C° 0 mm 2 mps 725 mmHg 53%
10:00 +12°C° 0 mm 2 mps 724 mmHg 48%
11:00 +12°C° 0.2 mm 2 mps 724 mmHg 52%
12:00 +12°C° 0.2 mm 2 mps 724 mmHg 57%
13:00 +12°C° 0.2 mm 2 mps 724 mmHg 62%
14:00 +10°C° 0.7 mm 2 mps 723 mmHg 69%
15:00 +10°C° 0.7 mm 1 mps 723 mmHg 76%
16:00 +9°C° 0.7 mm 1 mps 723 mmHg 83%
17:00 +9°C° 0.4 mm 1 mps 722 mmHg 86%
18:00 +7°C° 0.4 mm 2 mps 722 mmHg 89%
19:00 +7°C° 0.4 mm 2 mps 721 mmHg 93%
20:00 +7°C° 0.3 mm 2 mps 721 mmHg 93%
21:00 +7°C° 0.3 mm 2 mps 721 mmHg 94%
22:00 +8°C° 0.3 mm 1 mps 720 mmHg 95%
23:00 +8°C° 0.3 mm 1 mps 720 mmHg 95%

28 April, Wednesday

Time Temperature Precipitation Wind Pressure Humidity
00:00 +8°C° 0.3 mm 1 mps 720 mmHg 95%
01:00 +7°C° 0.3 mm 1 mps 720 mmHg 95%
02:00 +8°C° 0.2 mm 1 mps 719 mmHg 95%
03:00 +8°C° 0.2 mm 1 mps 719 mmHg 95%
04:00 +8°C° 0.2 mm 1 mps 719 mmHg 95%
05:00 +8°C° 0.1 mm 1 mps 719 mmHg 94%
06:00 +9°C° 0.1 mm 1 mps 719 mmHg 93%
07:00 +9°C° 0.1 mm 1 mps 718 mmHg 92%
08:00 +10°C° 0.1 mm 1 mps 718 mmHg 91%
09:00 +10°C° 0.1 mm 1 mps 718 mmHg 90%
10:00 +11°C° 0.1 mm 1 mps 718 mmHg 89%
11:00 +11°C° 0.1 mm 1 mps 718 mmHg 89%
12:00 +12°C° 0.1 mm 1 mps 718 mmHg 89%
13:00 +12°C° 0.1 mm 1 mps 718 mmHg 89%
14:00 +12°C° 0.4 mm 1 mps 718 mmHg 91%
15:00 +11°C° 0.4 mm 1 mps 717 mmHg 93%
16:00 +11°C° 0.4 mm 1 mps 717 mmHg 95%
17:00 +11°C° 0.6 mm 1 mps 717 mmHg 96%
18:00 +10°C° 0.6 mm 1 mps 717 mmHg 97%
19:00 +10°C° 0.6 mm 1 mps 717 mmHg 98%
20:00 +8°C° 1.5 mm 2 mps 717 mmHg 97%
21:00 +8°C° 1.5 mm 2 mps 717 mmHg 97%
22:00 +7°C° 1.5 mm 3 mps 718 mmHg 97%
23:00 +7°C° 0.3 mm 2 mps 718 mmHg 97%
Show more

We Need Your Consent

Meteoprog and our Service Providers may store and access personal data such as cookies, device identifiers or other similar technologies on your device and process such data to personalise content and ads, as well as provide social media features and to analyse the traffic.

  • Store and/or access information on your device

    Cookies, device identifiers or other information can be stored or accessed on your device for the purposes indicated above.

  • Personalised ads and content, ad and content measurement, audience insights, and products development

    Ads and content can be personalised based on a profile. More data can be added to better personalise ads and content. Ad and content performance can be measured. Insights about the audience who saw the ads and content can be derived. Such data can be used to develop or improve user’s experience, systems and software.

By clicking ‘I Agree’ you will allow the use of indicated cookies, device identifiers, web beacons or other similar technologies. Your settings can be changed in the browser on your device.

For certain purposes, legitimate interests may be relied on, rather than consent. You can read more about this in our Privacy and Cookie Policy.